Tracking 18840 objects as of 18-November-2017
HD Live streaming from Space Station
objects crossing your sky now

JILIN 1

Track JILIN 1 now!
10-day predictions


NORAD ID: 40961
Int'l Code: 2015-057D
Perigee: 645.1 km
Apogee: 668.9 km
Inclination: 98.0 °
Period: 97.7 minutes
Semi major axis: 7027 km
RCS: Unknown
Launch date: October 7, 2015
Source: People's Republic of China (PRC)
Launch site: Jiuquan Satellite Launch Center, China (JSC)

JILIN 1 is a Chinese satellite designed for engineering tests.
aabbcc
Your satellite tracking list
Your tracking list is empty




NASA's NSSDC Master Catalog

Two Line Element Set (TLE):
1 40961U 15057D   17322.20238525  .00000127  00000-0  27224-4 0  9991
2 40961  97.9665  35.3334 0016966 299.2776  60.6768 14.73525570113833
Source of the keplerian elements: AFSPC